Location: Barrett Brook
(44.3123°N, 71.7154°W)
Time: 03:07:42
(UTC+00:00)

Envisat - Pass Details

Date: 13 October 2024
Orbit: 762 x 763 km, 98.3° (Epoch: 04 November)

Event Time Altitude Azimuth Distance (km) Brightness Sun altitude
Rises 09:47:29 0° 354° (N) 3,236 6.2 -13.7°
Reaches altitude 10° 09:51:29 10° 322° (NW) 2,304 5.1 -13.0°
Enters shadow 09:52:59 11° 305° (NW) 2,201 4.9 -12.8°
